Showing default

YAM-10, 64580

Orbit data source: Space-Track

YAM-10, 64580 is an American payload satellite in SSO that was launched on Mon, 23 Jun 2025 UTC via an FALCON 9 launch vehicle from the Air Force Western Test Range (AFWTR). Payload-class satellites include a variety of spacecraft equipped with specific instruments for various scientific and technological missions. These include communications satellites like Starlink; space stations such as the ISS; scientific satellites like the Hubble; Earth observation satellites from companies like Planet Labs, Umbra, and HawkEye 360; GPS; miniature CubeSats for education and research; and military/defense satellites.

Loading next visibility...
Identifier
64580, 2025-135BE
Orbit
SSO
Country
Flag of USUS
Related business
Manufacturer
Airbus/Toulouse
Mission
Operational Commercial Technology
Bus & Motor
ARROW, Unknown motor
Mass
~150 kg wet, ~140 kg dry
Launch date (UTC)
2025-06-23 (7 months ago)
Launch vehicle
FALCON 9
Launch site
Air Force Western Test Range (AFWTR)
Object type
Payload
Rocket body
Debris
Shape & HBR
Trap Box + 2 Pan, 2.3 m
Radar Cross Section
2.032 m², Large (>1 m²)

Expand to show TLE details & history
Last TLE update: 13 hours ago

TLE from 13 hours ago
0 YAM-10
1 64580U 25135BE  26035.71774510  .00003447  00000-0  35233-3 0  9994
2 64580  97.7591 151.5875 0004389  80.4795 279.6919 14.91210520 34119
Epoch: 2026-02-04T17:13Z
TLE epoch observation values (Epoch: 2026-02-04T17:13:33.176Z)
Latitude
-0.00007°
Longitude
118.31896°
Altitude
596.687 km
Speed
7.562 km/s
True Right ascension
10h 06m 21s
True Declination
0° 00' 00"
Sunlit
Object was in full shadow at epoch
Visualization orbit readout
Latitude
Unknown
Longitude
Unknown
Altitude
Unknown
Speed
Unknown
Apparent Right ascension
Unknown
Apparent Declination
Unknown
Sunlit
N/A
Visualization observer readout
Local Sidereal Time
07:51:48
Azimuth
Unknown
Elevation
Unknown
Doppler factor
Unknown
Orbital elements
Apogee altitude
594.238 km
Perigee altitude
588.121 km
Semi-major axis
6,969.316 km
Eccentricity
0.00044
Inclination
97.7591°
RAAN
151.5875°
Arg. of periapsis
80.4795°
True anomaly
279.64232°
Mean anomaly
279.6919°
Eccentric anomaly
279.66711°
Mean motion
3.73042 °/min
Orbital period
96.5 mins
BSTAR
0.00035233
Loading maneuver chart data...
Computing Atmospheric mass density...
Loading historical data...
Loading historical data...
Loading historical data...
Loading historical data...
Loading historical data...
Loading historical data...
Loading historical data...

Documentation

Showing up to 5 results
|